Location: Kuppenheim
(48.8299°N, 8.2568°E)
Time: 10:26:49
(UTC+00:00)

Cosmos 1943 - Pass Details

Date: 20 June 2021
Orbit: 832 x 851 km, 71.0° (Epoch: 03 August)

Event Time Altitude Azimuth Distance (km) Brightness Sun altitude
Exits shadow 01:33:41 14° 235° (SW) 2,171 4.8 -12.5°
Maximum altitude 01:38:18 47° 306° (NW) 1,104 3.9 -12.1°
Drops below altitude 10° 01:43:45 10° 20° (NNE) 2,470 7.1 -11.7°
Sets 01:46:19 0° 26° (NNE) 3,411 8.5 -11.5°
